Location: Utrecht
(52.0907°N, 5.1214°E)
Time: 18:12:05
(UTC+02:00)

DIWATA 2B (PO-101) - Pass Details

Date: 30 June 2022
Orbit: 583 x 599 km, 98.0° (Epoch: 07 August)

Event Time Altitude Azimuth Distance (km) Brightness Sun altitude
Exits shadow 03:30:50 11° 172° (S) 1,858 ? -11.1°
Maximum altitude 03:34:50 71° 257° (WSW) 638 ? -10.9°
Drops below altitude 10° 03:39:05 10° 342° (NNW) 1,953 ? -10.6°
Sets 03:41:16 0° 345° (NNW) 2,860 ? -10.4°
